Index of /20260509/WXO-DD/model_gdps/15km/00/034
Name Last modified Size Description
Parent Directory -
20260509T00Z_MSC_GDPS_AirTemp_AGL-120m_LatLon0.15_PT034H.grib2 2026-05-09 03:49 902K
20260509T00Z_MSC_GDPS_AirTemp_AGL-2m_LatLon0.15_PT034H.grib2 2026-05-09 03:49 1.0M
20260509T00Z_MSC_GDPS_AirTemp_AGL-40m_LatLon0.15_PT034H.grib2 2026-05-09 03:49 801K
20260509T00Z_MSC_GDPS_AirTemp_AGL-80m_LatLon0.15_PT034H.grib2 2026-05-09 03:49 791K
20260509T00Z_MSC_GDPS_Albedo_Sfc_LatLon0.15_PT034H.grib2 2026-05-09 03:49 240K
20260509T00Z_MSC_GDPS_ConvectivePrecip-Accum_Sfc_LatLon0.15_PT034H.grib2 2026-05-09 03:49 2.7M
20260509T00Z_MSC_GDPS_DewPointDepression_AGL-2m_LatLon0.15_PT034H.grib2 2026-05-09 03:49 752K
20260509T00Z_MSC_GDPS_DewPoint_AGL-2m_LatLon0.15_PT034H.grib2 2026-05-09 03:49 603K
20260509T00Z_MSC_GDPS_DownwardLongwaveRadiationFlux-Accum_Sfc_LatLon0.15_PT034H.grib2 2026-05-09 03:49 783K
20260509T00Z_MSC_GDPS_DownwardShortwaveRadiationFlux-Accum_Sfc_LatLon0.15_PT034H.grib2 2026-05-09 03:49 922K
20260509T00Z_MSC_GDPS_FreezingRain-Accum1h_Sfc_LatLon0.15_PT034H.grib2 2026-05-09 03:49 57K
20260509T00Z_MSC_GDPS_FreezingRain-Accum_Sfc_LatLon0.15_PT034H.grib2 2026-05-09 03:49 154K
20260509T00Z_MSC_GDPS_IcePellets-Accum1h_Sfc_LatLon0.15_PT034H.grib2 2026-05-09 03:49 38K
20260509T00Z_MSC_GDPS_IcePellets-Accum_Sfc_LatLon0.15_PT034H.grib2 2026-05-09 03:49 74K
20260509T00Z_MSC_GDPS_LatentHeatNetFlux_Sfc_LatLon0.15_PT034H.grib2 2026-05-09 03:49 738K
20260509T00Z_MSC_GDPS_NetLongwaveRadiationFlux-Accum_Sfc_LatLon0.15_PT034H.grib2 2026-05-09 03:49 1.0M
20260509T00Z_MSC_GDPS_NetShortwaveRadiationFlux-Accum_Sfc_LatLon0.15_PT034H.grib2 2026-05-09 03:49 896K
20260509T00Z_MSC_GDPS_O3MixingRatio_Sfc_LatLon0.15_PT034H.grib2 2026-05-09 04:44 2.0M
20260509T00Z_MSC_GDPS_O3_EAtm_LatLon0.15_PT034H.grib2 2026-05-09 04:44 2.5M
20260509T00Z_MSC_GDPS_PlanetaryBoundaryLayerHeight_Sfc_LatLon0.15_PT034H.grib2 2026-05-09 03:49 2.5M
20260509T00Z_MSC_GDPS_Precip-Accum1h_Sfc_LatLon0.15_PT034H.grib2 2026-05-09 03:49 3.3M
20260509T00Z_MSC_GDPS_Precip-Accum_Sfc_LatLon0.15_PT034H.grib2 2026-05-09 03:49 4.7M
20260509T00Z_MSC_GDPS_PrecipRate_Sfc_LatLon0.15_PT034H.grib2 2026-05-09 03:49 3.1M
20260509T00Z_MSC_GDPS_Pressure_MSL_LatLon0.15_PT034H.grib2 2026-05-09 03:49 827K
20260509T00Z_MSC_GDPS_Pressure_Sfc_LatLon0.15_PT034H.grib2 2026-05-09 03:49 1.1M
20260509T00Z_MSC_GDPS_RadiativeTemp_Sfc_LatLon0.15_PT034H.grib2 2026-05-09 03:49 492K
20260509T00Z_MSC_GDPS_Rain-Accum1h_Sfc_LatLon0.15_PT034H.grib2 2026-05-09 03:49 1.7M
20260509T00Z_MSC_GDPS_Rain-Accum_Sfc_LatLon0.15_PT034H.grib2 2026-05-09 03:49 3.5M
20260509T00Z_MSC_GDPS_RelativeHumidity_AGL-2m_LatLon0.15_PT034H.grib2 2026-05-09 03:49 1.0M
20260509T00Z_MSC_GDPS_Runoff-Accum_Sfc_LatLon0.15_PT034H.grib2 2026-05-09 03:49 72K
20260509T00Z_MSC_GDPS_SensibleHeatNetFlux_Sfc_LatLon0.15_PT034H.grib2 2026-05-09 03:49 497K
20260509T00Z_MSC_GDPS_Snow-Accum1h_Sfc_LatLon0.15_PT034H.grib2 2026-05-09 03:49 1.0M
20260509T00Z_MSC_GDPS_Snow-Accum_Sfc_LatLon0.15_PT034H.grib2 2026-05-09 03:49 1.7M
20260509T00Z_MSC_GDPS_SnowDepth_Sfc_LatLon0.15_PT034H.grib2 2026-05-09 03:49 1.7M
20260509T00Z_MSC_GDPS_SoilTemp_DBS-0to10cm_LatLon0.15_PT034H.grib2 2026-05-09 03:49 502K
20260509T00Z_MSC_GDPS_SoilTemp_Sfc_LatLon0.15_PT034H.grib2 2026-05-09 03:49 591K
20260509T00Z_MSC_GDPS_SoilVolumetricWaterContent_DBS-0to10cm_LatLon0.15_PT034H.grib2 2026-05-09 03:49 600K
20260509T00Z_MSC_GDPS_SoilVolumetricWaterContent_DBS-0to1cm_LatLon0.15_PT034H.grib2 2026-05-09 03:49 647K
20260509T00Z_MSC_GDPS_SpecificHumidity_AGL-120m_LatLon0.15_PT034H.grib2 2026-05-09 03:49 1.1M
20260509T00Z_MSC_GDPS_SpecificHumidity_AGL-2m_LatLon0.15_PT034H.grib2 2026-05-09 03:49 1.2M
20260509T00Z_MSC_GDPS_SpecificHumidity_AGL-40m_LatLon0.15_PT034H.grib2 2026-05-09 03:49 1.1M
20260509T00Z_MSC_GDPS_SpecificHumidity_AGL-80m_LatLon0.15_PT034H.grib2 2026-05-09 03:49 1.1M
20260509T00Z_MSC_GDPS_SpecificHumidity_Sfc_LatLon0.15_PT034H.grib2 2026-05-09 03:49 681K
20260509T00Z_MSC_GDPS_TotalCloudCover_Sfc_LatLon0.15_PT034H.grib2 2026-05-09 03:49 820K
20260509T00Z_MSC_GDPS_UVIndex-ClearSky_Sfc_LatLon0.15_PT034H.grib2 2026-05-09 04:44 1.1M
20260509T00Z_MSC_GDPS_UVIndex_Sfc_LatLon0.15_PT034H.grib2 2026-05-09 04:44 1.5M
20260509T00Z_MSC_GDPS_UpwardLongwaveRadiationFlux_NTAtm_LatLon0.15_PT034H.grib2 2026-05-09 03:49 846K
20260509T00Z_MSC_GDPS_WindDir_AGL-10m_LatLon0.15_PT034H.grib2 2026-05-09 03:49 1.3M
20260509T00Z_MSC_GDPS_WindDir_AGL-120m_LatLon0.15_PT034H.grib2 2026-05-09 03:49 1.3M
20260509T00Z_MSC_GDPS_WindDir_AGL-40m_LatLon0.15_PT034H.grib2 2026-05-09 03:49 1.3M
20260509T00Z_MSC_GDPS_WindDir_AGL-80m_LatLon0.15_PT034H.grib2 2026-05-09 03:49 1.3M
20260509T00Z_MSC_GDPS_WindDir_IsbL-0700_LatLon0.15_PT034H.grib2 2026-05-09 03:49 1.6M
20260509T00Z_MSC_GDPS_WindGust-Max_AGL-10m_LatLon0.15_PT034H.grib2 2026-05-09 03:49 2.2M
20260509T00Z_MSC_GDPS_WindGust-Min_AGL-10m_LatLon0.15_PT034H.grib2 2026-05-09 03:49 2.1M
20260509T00Z_MSC_GDPS_WindGust_AGL-10m_LatLon0.15_PT034H.grib2 2026-05-09 03:49 2.1M
20260509T00Z_MSC_GDPS_WindSpeed_AGL-10m_LatLon0.15_PT034H.grib2 2026-05-09 03:49 1.1M
20260509T00Z_MSC_GDPS_WindSpeed_AGL-120m_LatLon0.15_PT034H.grib2 2026-05-09 03:49 1.2M
20260509T00Z_MSC_GDPS_WindSpeed_AGL-40m_LatLon0.15_PT034H.grib2 2026-05-09 03:49 1.2M
20260509T00Z_MSC_GDPS_WindSpeed_AGL-80m_LatLon0.15_PT034H.grib2 2026-05-09 03:49 1.2M
20260509T00Z_MSC_GDPS_WindSpeed_IsbL-0700_LatLon0.15_PT034H.grib2 2026-05-09 03:49 1.5M
20260509T00Z_MSC_GDPS_WindU_AGL-10m_LatLon0.15_PT034H.grib2 2026-05-09 03:49 1.3M
20260509T00Z_MSC_GDPS_WindU_AGL-120m_LatLon0.15_PT034H.grib2 2026-05-09 03:49 1.0M
20260509T00Z_MSC_GDPS_WindU_AGL-40m_LatLon0.15_PT034H.grib2 2026-05-09 03:49 958K
20260509T00Z_MSC_GDPS_WindU_AGL-80m_LatLon0.15_PT034H.grib2 2026-05-09 03:49 962K
20260509T00Z_MSC_GDPS_WindU_IsbL-0700_LatLon0.15_PT034H.grib2 2026-05-09 03:49 1.2M
20260509T00Z_MSC_GDPS_WindV_AGL-10m_LatLon0.15_PT034H.grib2 2026-05-09 03:49 1.3M
20260509T00Z_MSC_GDPS_WindV_AGL-120m_LatLon0.15_PT034H.grib2 2026-05-09 03:49 1.0M
20260509T00Z_MSC_GDPS_WindV_AGL-40m_LatLon0.15_PT034H.grib2 2026-05-09 03:49 962K
20260509T00Z_MSC_GDPS_WindV_AGL-80m_LatLon0.15_PT034H.grib2 2026-05-09 03:49 1.0M
20260509T00Z_MSC_GDPS_WindV_IsbL-0700_LatLon0.15_PT034H.grib2 2026-05-09 03:49 1.2M